SCP
0 0 0 -0 -0 -0 -0 -0 0 0 0 -0 -0 -0 -0 -0 -0 -0 -0 -0 -0 -0 -0 -0 0 0 0 0 0 0 0 0 0 0 0 0 0 0 0 0 0 0 0 0 0 0 0
0 0 0 0 0 0 -0 -0 -0 0 0 0 -0 -0 -0 -0 -0 -0 -0 -0 -0 -0 -0 -0 0 0 0 0 0 0 0 0 0 0 0 0 0 0 0 0 0 0 0 0 0 0 0
0 0 0 0 0 0 0 -0 -0 -0 -0 0 0 -0 -0 -0 -0 -0 -0 -0 -0 -0 -0 0 0 0 0 -0 0 0 0 0 0 0 0 0 0 0 0 0 0 0 0 0 0 0 0
0 0 0 0 0 0 0 0 0 -0 -0 -0 -0 0 -0 -0 -0 -0 -0 -0 -0 -0 0 0 0 0 0 0 0 0 0 0 0 0 0 0 0 0 0 0 0 0 0 0 0 0 0
0 0 0 0 0 0 0 0 0 -0 -0 -0 -0 -0 -0 -0 -0 -0 -0 -0 -0 0 0 0 0 0 -0 0 0 -0 0 0 0 0 0 0 0 0 0 0 0 0 0 0 0 0 0
0 0 0 0 0 0 0 0 0 -0 -0 -0 -0 -0 -0 -0 -0 -0 -0 0 0 0 0 0 0 0 0 0 0 0 0 0 0 0 0 0 0 0 0 0 0 0 0 0 0 0 0
0 0 0 0 0 0 0 0 0 0 -0 -0 -0 -0 -0 -0 -0 0 0 0 0 0 0 0 0 0 0 0 0 0 0 0 0 0 0 0 0 0 0 0 0 0 0 0 0 0 0
0 0 0 0 0 0 0 0 0 0 0 -0 -0 -0 -0 -0 -0 -0 0 0 0 0 0 0 0 0 0 0 0 0 0 0 0 0 0 0 0 0 0 0 0 0 0 0 0 0 0
0 0 0 0 0 0 0 0 0 0 0 0 0 0 0 -0 -0 0 0 0 0 0 0 0 0 0 0 0 0 0 0 0 0 0 0 0 0 0 0 0 0 0 0 0 0 0 0
0 0 0 0 0 0 0 0 0 0 0 0 0 0 0 -0 0 0 0 0 0 0 0 0 0 0 0 0 0 0 0 0 0 0 0 0 0 0 0 0 0 0 0 0 0 0 0
0 0 0 0 0 0 0 0 0 0 0 0 0 0 0 0 0 0 0 0 0 0 0 0 0 0 0 0 0 0 0 0 0 0 0 0 0 0 0 0 0 0 0 0 0 0 0
0 0 0 0 0 0 0 0 0 0 0 0 0 0 0 -0 0 0 0 0 0 0 0 0 0 0 0 0 0 0 0 0 0 0 0 0 0 0 0 0 0 0 0 0 0 0 0
0 0 0 0 0 0 0 0 0 0 0 0 0 0 0 0 0 0 0 0 0 0 0 0 0 0 0 0 0 0 0 0 0 0 0 0 0 0 0 0 0 0 0 0 0 0 0
0 0 0 0 0 0 0 0 0 0 0 0 0 0 0 0 0 0 0 0 0 0 0 0 0 0 0 0 -0 0 0 0 0 0 0 0 0 0 0 0 0 0 0 0 0 0 0
0 0 0 0 0 0 0 0 0 0 0 0 0 0 0 0 0 0 0 0 0 0 0 0 0 0 0 0 0 0 0 0 0 0 0 0 0 0 0 0 0 0 0 0 0 0 0
0 0 0 0 0 0 0 0 0 0 0 0 0 0 0 0 0 0 0 0 0 0 0 0 0 0 0 0 0 0 0 0 0 0 0 0 0 0 0 0 0 0 0 0 0 0 0
0 0 0 0 0 0 0 0 0 0 0 0 0 0 0 0 0 0 0 0 0 0 0 0 0 0 0 0 0 0 0 0 0 0 0 0 0 0 0 0 0 0 0 0 0 0 0
0 0 0 0 0 0 0 0 0 0 0 0 0 0 0 0 0 0 0 0 0 0 0 0 0 0 0 0 0 0 0 0 0 0 0 0 0 0 0 0 0 0 0 0 0 0 0
0 0 0 0 0 0 0 0 0 0 0 0 0 0 0 0 0 0 0 0 0 0 0 0 0 0 0 0 0 0 0 0 0 0 0 0 0 0 0 0 0 0 0 0 0 0 0
0 0 0 0 0 0 0 0 0 0 0 0 0 0 0 0 0 0 0 0 0 0 0 0 0 0 0 0 0 0 0 0 0 0 0 0 0 0 0 0 0 0 0 0 0 0 0
0 0 0 0 0 0 0 0 0 0 0 0 0 0 0 0 0 0 0 0 0 0 0 0 0 0 0 0 0 0 0 0 0 0 0 0 0 0 0 0 0 0 0 0 0 0 0
0 0 0 0 0 0 0 0 0 0 0 0 0 0 0 0 0 0 0 0 0 0 0 0 0 0 0 0 0 0 0 0 0 0 0 0 0 0 0 0 0 0 0 0 0 0 0
0 0 0 0 0 0 0 0 0 0 0 0 0 0 0 0 0 0 0 0 0 0 0 0 0 0 0 0 0 0 0 0 0 0 0 0 0 0 0 0 0 0 0 0 0 0 0
0 0 0 0 0 0 0 0 0 0 0 0 0 0 0 0 0 0 0 0 0 0 0 0 0 0 0 0 0 0 0 0 0 0 0 0 0 0 0 0 0 0 0 0 0 0 0
0 0 0 0 0 0 0 0 0 0 0 0 0 0 0 0 0 0 0 0 0 0 0 0 0 0 0 0 0 0 0 0 0 0 0 0 0 0 0 0 0 0 0 0 0 0 0
0 0 0 0 0 0 0 0 0 0 0 0 0 0 0 0 0 0 0 0 0 0 0 0 0 0 0 0 0 0 0 0 0 0 0 0 0 0 0 0 0 -0 0 0 0 0 0
0 0 0 0 0 0 0 0 0 0 0 0 0 0 0 0 0 0 0 0 0 0 0 0 0 0 0 0 0 0 0 0 0 0 0 0 0 0 0 0 0 0 0 0 0 0 0
0 0 0 0 0 0 0 0 0 0 0 0 0 0 0 0 0 0 0 0 0 0 0 0 0 0 0 0 0 0 0 0 0 0 0 0 0 0 0 0 0 0 0 0 0 0 0
0 0 0 0 0 0 0 0 0 0 0 0 0 0 0 0 0 0 0 0 0 0 0 0 0 0 0 0 0 0 0 0 0 0 0 0 0 0 0 0 0 0 0 0 0 0 0
Wind_Speed_500mb
33 35 36 36 37 38 38 39 39 38 38 38 38 36 35 34 32 31 30 29 22 18 15 12 12 13 14 12 18 1 3 11 19 22 21 14 6 5 3 6 5 9 11 20 42 27 51
33 35 37 38 38 37 37 37 38 38 38 38 38 38 37 36 35 32 30 30 22 17 13 11 10 13 14 10 11 10 11 10 17 23 20 12 4 15 10 6 8 9 22 32 20 8 15
33 35 36 37 38 38 37 37 37 38 38 38 39 39 39 37 37 34 30 29 21 15 13 11 10 14 24 34 11 9 10 14 14 19 13 5 14 10 11 10 7 12 10 16 4 5 11
33 33 34 36 36 37 38 38 39 39 40 40 40 40 40 38 38 37 32 27 19 14 13 13 13 17 20 10 21 21 9 18 19 18 13 14 20 19 6 14 14 9 9 6 10 8 19
33 34 35 36 37 38 39 39 40 41 41 42 42 41 40 38 38 38 33 21 15 13 12 12 14 13 21 14 30 25 12 16 22 17 17 22 14 4 6 7 11 14 2 3 18 7 6
37 36 38 40 40 40 41 41 42 43 44 43 43 43 40 37 36 36 24 15 7 10 12 12 20 14 22 2 22 32 21 18 16 10 13 8 3 6 8 9 8 5 7 9 7 10 10
39 41 42 42 44 44 43 44 44 44 45 46 45 44 41 36 32 28 19 5 7 3 10 19 13 23 25 18 6 27 34 30 34 13 4 3 7 10 15 11 4 2 3 6 13 10 5
42 43 43 46 46 47 47 46 46 46 46 47 47 46 43 36 30 10 16 13 21 23 23 30 42 56 60 51 17 18 36 31 15 13 5 9 10 18 6 8 8 6 3 17 16 9 12
43 47 47 49 49 48 49 50 50 48 48 47 46 47 45 35 24 5 3 17 15 13 12 23 43 47 50 23 25 32 27 48 10 11 8 12 13 9 7 6 5 7 6 9 14 10 5
49 52 52 52 51 50 50 51 52 53 51 49 47 45 45 39 8 9 10 11 8 11 7 14 10 18 33 27 11 45 35 36 3 19 11 10 14 11 2 10 12 13 16 14 7 5 2
49 49 51 53 52 52 51 52 53 53 53 50 49 43 41 38 33 16 9 5 6 4 6 6 9 7 31 36 5 28 43 39 17 11 13 15 2 3 2 11 10 20 13 13 7 8 5
49 50 50 51 51 52 52 51 51 52 53 51 49 45 43 36 36 8 2 7 2 9 14 10 15 13 13 13 6 11 31 40 28 11 2 15 4 2 10 10 6 7 9 15 9 7 6
48 49 50 51 50 51 52 52 51 52 53 52 50 45 43 42 24 11 2 9 8 7 9 7 3 3 11 13 9 8 15 11 12 7 7 13 12 7 8 10 5 11 13 5 7 9 9
48 49 50 51 50 49 50 50 50 51 51 53 49 47 41 41 30 24 10 8 8 11 10 10 10 6 10 12 14 11 12 12 5 10 6 12 14 10 8 14 11 9 16 12 10 7 8
47 47 49 50 51 50 50 49 49 49 48 51 47 45 39 23 29 34 18 5 15 12 7 12 15 6 9 2 8 11 18 20 20 19 19 11 11 6 8 6 14 6 6 9 14 6 4
45 44 45 46 45 45 47 47 46 46 43 43 46 44 16 15 35 45 7 10 9 8 9 9 4 9 6 8 7 13 15 12 13 24 19 13 6 9 11 2 5 11 11 7 7 7 8
36 38 39 37 36 37 41 43 42 43 38 33 31 21 4 29 44 24 8 13 9 20 12 4 6 6 3 4 4 2 6 10 11 5 18 10 9 10 3 3 5 4 3 13 12 8 9
33 34 36 32 30 31 34 36 36 37 33 24 13 4 18 44 9 2 5 10 6 10 3 10 7 18 13 9 3 3 3 8 6 18 21 11 11 9 13 10 5 8 7 9 10 6 4
31 32 32 28 26 27 31 32 31 29 27 23 16 12 16 39 7 4 9 7 11 7 11 9 7 11 9 11 5 5 2 8 4 7 15 15 2 2 12 12 9 14 7 8 12 7 9
32 25 28 27 27 25 27 29 27 24 20 17 9 5 4 28 9 11 4 8 8 18 21 17 12 6 6 6 4 1 5 8 6 7 20 11 8 12 17 12 9 9 7 3 9 7 8
26 20 24 26 27 25 26 27 24 22 17 10 5 5 4 5 1 4 6 5 13 9 9 9 5 12 12 8 5 3 8 8 13 8 8 8 8 7 9 6 8 4 7 5 10 8 11
25 25 27 22 24 20 25 26 24 20 14 7 3 7 10 9 14 5 11 11 8 6 8 11 3 11 3 12 13 9 6 1 4 5 6 6 3 5 6 7 6 5 6 10 13 3 10
26 27 27 26 23 21 21 23 24 19 9 5 5 6 7 9 8 2 3 8 3 10 12 8 10 9 9 9 13 10 13 8 5 11 5 7 10 6 3 4 3 6 11 12 5 3 4
27 27 29 24 22 17 23 24 22 19 12 9 6 4 1 7 4 2 5 8 6 9 7 9 10 9 2 7 9 13 16 11 14 14 9 10 9 6 6 5 2 12 5 6 17 4 12
25 25 29 24 22 18 22 21 23 20 15 14 12 6 2 6 8 8 14 6 18 17 4 4 15 17 11 9 8 9 9 6 4 6 10 10 10 6 9 7 8 10 6 10 9 3 3
22 23 23 22 22 16 21 24 28 19 16 18 15 17 8 3 7 10 7 6 2 7 11 6 10 11 9 7 6 8 9 10 8 5 12 12 9 9 7 10 14 14 7 13 9 6 8
22 21 23 20 20 18 20 20 14 13 17 18 12 23 10 9 10 8 5 4 7 3 2 8 15 8 7 5 5 5 6 5 8 12 8 6 5 11 5 6 11 11 12 14 9 13 19
23 23 24 24 20 19 18 16 15 17 16 15 16 27 18 9 24 17 8 5 8 5 3 11 4 6 8 7 6 6 5 6 3 5 7 11 10 7 6 4 12 21 11 16 12 19 17
17 22 22 25 27 19 15 14 12 13 13 13 15 16 15 22 15 16 25 20 15 7 8 8 2 1 4 8 1 5 3 4 6 6 8 4 10 8 15 11 7 16 6 14 29 24 14
Wind_Direction_500mb
359 357 356 354 352 351 351 350 350 350 350 349 347 345 342 339 338 336 332 324 312 308 308 298 292 286 291 276 255 217 306 195 180 176 177 170 208 195 213 211 262 200 270 283 285 264 223
353 352 350 349 346 346 346 345 345 345 345 345 343 341 340 337 333 332 329 322 305 294 298 286 283 285 276 266 250 257 220 209 180 178 183 197 299 314 275 227 168 272 264 293 312 276 193
347 345 344 344 344 343 342 341 340 340 340 340 339 337 336 335 330 327 326 318 298 280 280 273 278 284 271 251 224 205 217 235 200 186 182 266 326 305 316 300 316 276 322 339 328 74 92
339 341 341 341 339 339 340 339 337 337 336 335 334 333 332 333 329 324 324 313 289 266 270 263 276 283 262 270 218 187 193 206 202 205 236 294 310 286 256 305 349 27 47 43 287 10 165
334 336 336 336 336 336 335 335 334 333 332 332 331 331 330 330 328 323 328 310 285 260 259 255 271 278 267 231 209 190 198 199 189 221 261 291 283 292 349 68 6 11 320 341 325 1 112
328 328 332 333 332 332 332 331 330 330 330 330 329 328 328 328 328 324 336 318 286 259 251 263 253 286 249 292 231 211 200 197 209 257 290 233 194 65 33 65 218 235 343 330 286 303 11
329 328 326 329 328 328 328 328 328 328 328 328 328 326 325 328 329 329 6 91 356 330 272 244 253 243 270 292 218 213 204 212 229 283 207 305 83 227 229 199 163 109 185 275 269 258 246
320 324 324 325 324 324 324 324 325 325 325 326 326 324 323 326 326 318 20 72 24 310 288 272 256 257 259 267 292 216 201 197 172 208 142 17 246 235 219 186 217 217 307 296 291 273 160
313 318 319 321 321 321 321 321 322 322 323 323 324 323 321 325 320 215 336 21 16 349 267 274 246 237 243 240 225 235 194 202 158 183 175 176 231 108 175 261 236 251 199 242 234 342 132
311 313 316 316 317 317 318 318 318 319 320 320 321 321 321 324 309 311 156 356 358 322 16 273 226 235 205 192 243 232 223 197 150 191 200 235 273 237 269 264 165 266 213 212 159 96 215
307 309 311 312 313 314 314 314 315 316 315 317 317 316 315 315 301 312 274 300 288 310 327 227 194 174 171 165 167 201 206 196 166 194 121 238 200 75 282 241 159 227 158 178 125 108 80
305 307 308 309 310 311 312 312 313 313 312 313 311 311 308 303 294 292 269 222 200 54 249 304 156 153 125 177 201 154 186 201 201 177 198 233 238 228 225 284 247 132 91 49 55 93 53
303 304 306 307 308 309 309 310 311 311 311 310 306 305 300 290 279 202 98 158 57 174 320 337 346 165 160 163 223 168 149 154 162 145 279 322 270 247 217 284 9 73 62 359 351 11 211
303 304 305 306 308 309 309 310 311 311 311 310 306 304 292 276 266 238 205 63 187 233 260 309 345 276 194 140 241 174 132 198 273 119 130 191 312 166 172 182 205 198 151 152 210 188 241
301 303 303 305 306 308 308 310 310 311 313 312 311 306 296 286 222 189 178 134 205 210 314 350 327 189 195 281 164 145 185 201 195 172 182 157 261 266 219 191 143 196 172 184 102 35 75
301 303 306 305 306 307 308 311 313 311 316 318 317 315 314 224 179 172 108 231 237 235 10 1 294 6 105 350 90 148 174 212 212 187 159 211 303 217 278 129 122 165 155 90 22 147 216
300 305 312 309 308 310 313 314 313 312 318 321 317 317 358 157 154 164 173 230 275 281 290 283 254 350 349 139 151 174 191 278 206 137 172 132 132 270 35 359 177 6 58 50 107 107 160
300 301 311 311 313 315 319 321 316 314 321 321 304 333 148 156 119 131 185 203 271 287 306 280 237 208 202 202 196 149 205 227 321 160 152 186 157 231 227 336 13 104 112 127 116 201 108
294 298 310 314 316 319 322 324 322 324 327 337 315 277 188 181 164 236 273 262 243 240 236 241 275 194 191 166 159 242 243 320 296 111 159 175 112 74 6 344 356 75 50 91 87 74 187
302 286 303 307 312 315 320 329 326 329 325 328 305 329 225 209 216 156 196 267 257 276 241 223 246 230 124 114 17 183 306 43 1 68 97 100 111 157 190 193 152 93 118 176 110 113 179
301 289 297 304 311 310 316 320 325 327 320 313 270 273 349 281 359 161 179 293 293 292 289 330 247 207 161 129 107 33 349 350 43 20 54 90 107 100 51 52 67 87 102 172 220 189 161
293 286 290 298 302 309 314 320 315 316 320 268 275 339 335 282 294 244 174 223 239 286 230 290 355 1 93 145 163 180 166 324 206 353 70 20 135 77 95 72 47 234 179 234 240 234 258
284 284 287 290 298 302 313 327 324 309 314 229 207 268 296 295 324 109 155 284 289 318 274 249 289 118 114 182 137 95 137 124 153 141 110 82 122 89 105 22 217 340 214 225 224 197 245
284 281 285 280 282 297 303 314 321 315 292 244 217 285 193 275 267 189 334 299 304 282 261 329 81 109 149 152 117 96 82 95 78 53 121 117 89 83 156 58 170 240 292 202 125 39 343
280 278 281 268 273 282 289 296 305 312 290 260 236 235 225 271 298 310 319 291 317 314 259 153 84 94 111 97 61 53 356 27 315 185 113 116 114 104 141 183 297 309 212 157 177 199 232
269 273 277 267 264 269 287 290 293 284 279 269 240 219 220 268 218 309 297 338 12 331 340 34 77 82 97 84 83 137 184 196 207 155 54 59 70 123 144 165 207 229 225 138 102 299 223
273 269 272 271 259 265 279 296 297 276 272 269 236 200 210 251 247 6 39 308 349 23 251 328 339 16 61 85 96 144 205 223 179 168 173 89 38 168 150 207 287 244 195 146 123 239 182
269 266 268 263 266 261 283 282 285 282 274 265 208 209 217 261 272 262 294 338 352 22 81 340 32 344 46 75 123 193 147 234 131 218 175 162 146 196 95 121 280 196 119 161 196 150 174
280 264 273 272 245 245 275 286 272 274 272 272 209 196 230 241 270 277 269 239 265 273 320 3 137 63 135 95 151 115 115 52 145 230 341 246 179 188 175 211 248 177 189 164 153 157 178
Wind_Speed_850mb
33 35 36 36 37 38 38 39 39 38 38 38 38 36 35 34 32 31 30 29 22 18 15 12 12 13 14 12 18 1 3 11 19 22 21 14 6 5 3 6 5 9 11 20 42 27 51
33 35 37 38 38 37 37 37 38 38 38 38 38 38 37 36 35 32 30 30 22 17 13 11 10 13 14 10 11 10 11 10 17 23 20 12 4 15 10 6 8 9 22 32 20 8 15
33 35 36 37 38 38 37 37 37 38 38 38 39 39 39 37 37 34 30 29 21 15 13 11 10 14 24 34 11 9 10 14 14 19 13 5 14 10 11 10 7 12 10 16 4 5 11
33 33 34 36 36 37 38 38 39 39 40 40 40 40 40 38 38 37 32 27 19 14 13 13 13 17 20 10 21 21 9 18 19 18 13 14 20 19 6 14 14 9 9 6 10 8 19
33 34 35 36 37 38 39 39 40 41 41 42 42 41 40 38 38 38 33 21 15 13 12 12 14 13 21 14 30 25 12 16 22 17 17 22 14 4 6 7 11 14 2 3 18 7 6
37 36 38 40 40 40 41 41 42 43 44 43 43 43 40 37 36 36 24 15 7 10 12 12 20 14 22 2 22 32 21 18 16 10 13 8 3 6 8 9 8 5 7 9 7 10 10
39 41 42 42 44 44 43 44 44 44 45 46 45 44 41 36 32 28 19 5 7 3 10 19 13 23 25 18 6 27 34 30 34 13 4 3 7 10 15 11 4 2 3 6 13 10 5
42 43 43 46 46 47 47 46 46 46 46 47 47 46 43 36 30 10 16 13 21 23 23 30 42 56 60 51 17 18 36 31 15 13 5 9 10 18 6 8 8 6 3 17 16 9 12
43 47 47 49 49 48 49 50 50 48 48 47 46 47 45 35 24 5 3 17 15 13 12 23 43 47 50 23 25 32 27 48 10 11 8 12 13 9 7 6 5 7 6 9 14 10 5
49 52 52 52 51 50 50 51 52 53 51 49 47 45 45 39 8 9 10 11 8 11 7 14 10 18 33 27 11 45 35 36 3 19 11 10 14 11 2 10 12 13 16 14 7 5 2
49 49 51 53 52 52 51 52 53 53 53 50 49 43 41 38 33 16 9 5 6 4 6 6 9 7 31 36 5 28 43 39 17 11 13 15 2 3 2 11 10 20 13 13 7 8 5
49 50 50 51 51 52 52 51 51 52 53 51 49 45 43 36 36 8 2 7 2 9 14 10 15 13 13 13 6 11 31 40 28 11 2 15 4 2 10 10 6 7 9 15 9 7 6
48 49 50 51 50 51 52 52 51 52 53 52 50 45 43 42 24 11 2 9 8 7 9 7 3 3 11 13 9 8 15 11 12 7 7 13 12 7 8 10 5 11 13 5 7 9 9
48 49 50 51 50 49 50 50 50 51 51 53 49 47 41 41 30 24 10 8 8 11 10 10 10 6 10 12 14 11 12 12 5 10 6 12 14 10 8 14 11 9 16 12 10 7 8
47 47 49 50 51 50 50 49 49 49 48 51 47 45 39 23 29 34 18 5 15 12 7 12 15 6 9 2 8 11 18 20 20 19 19 11 11 6 8 6 14 6 6 9 14 6 4
45 44 45 46 45 45 47 47 46 46 43 43 46 44 16 15 35 45 7 10 9 8 9 9 4 9 6 8 7 13 15 12 13 24 19 13 6 9 11 2 5 11 11 7 7 7 8
36 38 39 37 36 37 41 43 42 43 38 33 31 21 4 29 44 24 8 13 9 20 12 4 6 6 3 4 4 2 6 10 11 5 18 10 9 10 3 3 5 4 3 13 12 8 9
33 34 36 32 30 31 34 36 36 37 33 24 13 4 18 44 9 2 5 10 6 10 3 10 7 18 13 9 3 3 3 8 6 18 21 11 11 9 13 10 5 8 7 9 10 6 4
31 32 32 28 26 27 31 32 31 29 27 23 16 12 16 39 7 4 9 7 11 7 11 9 7 11 9 11 5 5 2 8 4 7 15 15 2 2 12 12 9 14 7 8 12 7 9
32 25 28 27 27 25 27 29 27 24 20 17 9 5 4 28 9 11 4 8 8 18 21 17 12 6 6 6 4 1 5 8 6 7 20 11 8 12 17 12 9 9 7 3 9 7 8
26 20 24 26 27 25 26 27 24 22 17 10 5 5 4 5 1 4 6 5 13 9 9 9 5 12 12 8 5 3 8 8 13 8 8 8 8 7 9 6 8 4 7 5 10 8 11
25 25 27 22 24 20 25 26 24 20 14 7 3 7 10 9 14 5 11 11 8 6 8 11 3 11 3 12 13 9 6 1 4 5 6 6 3 5 6 7 6 5 6 10 13 3 10
26 27 27 26 23 21 21 23 24 19 9 5 5 6 7 9 8 2 3 8 3 10 12 8 10 9 9 9 13 10 13 8 5 11 5 7 10 6 3 4 3 6 11 12 5 3 4
27 27 29 24 22 17 23 24 22 19 12 9 6 4 1 7 4 2 5 8 6 9 7 9 10 9 2 7 9 13 16 11 14 14 9 10 9 6 6 5 2 12 5 6 17 4 12
25 25 29 24 22 18 22 21 23 20 15 14 12 6 2 6 8 8 14 6 18 17 4 4 15 17 11 9 8 9 9 6 4 6 10 10 10 6 9 7 8 10 6 10 9 3 3
22 23 23 22 22 16 21 24 28 19 16 18 15 17 8 3 7 10 7 6 2 7 11 6 10 11 9 7 6 8 9 10 8 5 12 12 9 9 7 10 14 14 7 13 9 6 8
22 21 23 20 20 18 20 20 14 13 17 18 12 23 10 9 10 8 5 4 7 3 2 8 15 8 7 5 5 5 6 5 8 12 8 6 5 11 5 6 11 11 12 14 9 13 19
23 23 24 24 20 19 18 16 15 17 16 15 16 27 18 9 24 17 8 5 8 5 3 11 4 6 8 7 6 6 5 6 3 5 7 11 10 7 6 4 12 21 11 16 12 19 17
17 22 22 25 27 19 15 14 12 13 13 13 15 16 15 22 15 16 25 20 15 7 8 8 2 1 4 8 1 5 3 4 6 6 8 4 10 8 15 11 7 16 6 14 29 24 14
Wind_Direction_850mb
359 357 356 354 352 351 351 350 350 350 350 349 347 345 342 339 338 336 332 324 312 308 308 298 292 286 291 276 255 217 306 195 180 176 177 170 208 195 213 211 262 200 270 283 285 264 223
353 352 350 349 346 346 346 345 345 345 345 345 343 341 340 337 333 332 329 322 305 294 298 286 283 285 276 266 250 257 220 209 180 178 183 197 299 314 275 227 168 272 264 293 312 276 193
347 345 344 344 344 343 342 341 340 340 340 340 339 337 336 335 330 327 326 318 298 280 280 273 278 284 271 251 224 205 217 235 200 186 182 266 326 305 316 300 316 276 322 339 328 74 92
339 341 341 341 339 339 340 339 337 337 336 335 334 333 332 333 329 324 324 313 289 266 270 263 276 283 262 270 218 187 193 206 202 205 236 294 310 286 256 305 349 27 47 43 287 10 165
334 336 336 336 336 336 335 335 334 333 332 332 331 331 330 330 328 323 328 310 285 260 259 255 271 278 267 231 209 190 198 199 189 221 261 291 283 292 349 68 6 11 320 341 325 1 112
328 328 332 333 332 332 332 331 330 330 330 330 329 328 328 328 328 324 336 318 286 259 251 263 253 286 249 292 231 211 200 197 209 257 290 233 194 65 33 65 218 235 343 330 286 303 11
329 328 326 329 328 328 328 328 328 328 328 328 328 326 325 328 329 329 6 91 356 330 272 244 253 243 270 292 218 213 204 212 229 283 207 305 83 227 229 199 163 109 185 275 269 258 246
320 324 324 325 324 324 324 324 325 325 325 326 326 324 323 326 326 318 20 72 24 310 288 272 256 257 259 267 292 216 201 197 172 208 142 17 246 235 219 186 217 217 307 296 291 273 160
313 318 319 321 321 321 321 321 322 322 323 323 324 323 321 325 320 215 336 21 16 349 267 274 246 237 243 240 225 235 194 202 158 183 175 176 231 108 175 261 236 251 199 242 234 342 132
311 313 316 316 317 317 318 318 318 319 320 320 321 321 321 324 309 311 156 356 358 322 16 273 226 235 205 192 243 232 223 197 150 191 200 235 273 237 269 264 165 266 213 212 159 96 215
307 309 311 312 313 314 314 314 315 316 315 317 317 316 315 315 301 312 274 300 288 310 327 227 194 174 171 165 167 201 206 196 166 194 121 238 200 75 282 241 159 227 158 178 125 108 80
305 307 308 309 310 311 312 312 313 313 312 313 311 311 308 303 294 292 269 222 200 54 249 304 156 153 125 177 201 154 186 201 201 177 198 233 238 228 225 284 247 132 91 49 55 93 53
303 304 306 307 308 309 309 310 311 311 311 310 306 305 300 290 279 202 98 158 57 174 320 337 346 165 160 163 223 168 149 154 162 145 279 322 270 247 217 284 9 73 62 359 351 11 211
303 304 305 306 308 309 309 310 311 311 311 310 306 304 292 276 266 238 205 63 187 233 260 309 345 276 194 140 241 174 132 198 273 119 130 191 312 166 172 182 205 198 151 152 210 188 241
301 303 303 305 306 308 308 310 310 311 313 312 311 306 296 286 222 189 178 134 205 210 314 350 327 189 195 281 164 145 185 201 195 172 182 157 261 266 219 191 143 196 172 184 102 35 75
301 303 306 305 306 307 308 311 313 311 316 318 317 315 314 224 179 172 108 231 237 235 10 1 294 6 105 350 90 148 174 212 212 187 159 211 303 217 278 129 122 165 155 90 22 147 216
300 305 312 309 308 310 313 314 313 312 318 321 317 317 358 157 154 164 173 230 275 281 290 283 254 350 349 139 151 174 191 278 206 137 172 132 132 270 35 359 177 6 58 50 107 107 160
300 301 311 311 313 315 319 321 316 314 321 321 304 333 148 156 119 131 185 203 271 287 306 280 237 208 202 202 196 149 205 227 321 160 152 186 157 231 227 336 13 104 112 127 116 201 108
294 298 310 314 316 319 322 324 322 324 327 337 315 277 188 181 164 236 273 262 243 240 236 241 275 194 191 166 159 242 243 320 296 111 159 175 112 74 6 344 356 75 50 91 87 74 187
302 286 303 307 312 315 320 329 326 329 325 328 305 329 225 209 216 156 196 267 257 276 241 223 246 230 124 114 17 183 306 43 1 68 97 100 111 157 190 193 152 93 118 176 110 113 179
301 289 297 304 311 310 316 320 325 327 320 313 270 273 349 281 359 161 179 293 293 292 289 330 247 207 161 129 107 33 349 350 43 20 54 90 107 100 51 52 67 87 102 172 220 189 161
293 286 290 298 302 309 314 320 315 316 320 268 275 339 335 282 294 244 174 223 239 286 230 290 355 1 93 145 163 180 166 324 206 353 70 20 135 77 95 72 47 234 179 234 240 234 258
284 284 287 290 298 302 313 327 324 309 314 229 207 268 296 295 324 109 155 284 289 318 274 249 289 118 114 182 137 95 137 124 153 141 110 82 122 89 105 22 217 340 214 225 224 197 245
284 281 285 280 282 297 303 314 321 315 292 244 217 285 193 275 267 189 334 299 304 282 261 329 81 109 149 152 117 96 82 95 78 53 121 117 89 83 156 58 170 240 292 202 125 39 343
280 278 281 268 273 282 289 296 305 312 290 260 236 235 225 271 298 310 319 291 317 314 259 153 84 94 111 97 61 53 356 27 315 185 113 116 114 104 141 183 297 309 212 157 177 199 232
269 273 277 267 264 269 287 290 293 284 279 269 240 219 220 268 218 309 297 338 12 331 340 34 77 82 97 84 83 137 184 196 207 155 54 59 70 123 144 165 207 229 225 138 102 299 223
273 269 272 271 259 265 279 296 297 276 272 269 236 200 210 251 247 6 39 308 349 23 251 328 339 16 61 85 96 144 205 223 179 168 173 89 38 168 150 207 287 244 195 146 123 239 182
269 266 268 263 266 261 283 282 285 282 274 265 208 209 217 261 272 262 294 338 352 22 81 340 32 344 46 75 123 193 147 234 131 218 175 162 146 196 95 121 280 196 119 161 196 150 174
280 264 273 272 245 245 275 286 272 274 272 272 209 196 230 241 270 277 269 239 265 273 320 3 137 63 135 95 151 115 115 52 145 230 341 246 179 188 175 211 248 177 189 164 153 157 178